Route Details

Aircraft Information
Group: European Fleet
Types: A30F, A31F, B738
Route Data
Distance: 1599nm
Duration: 4h 00m
Origin METAR: LPPD 010530Z 03007KT 9999 SCT016 12/08 Q1029
Dest. METAR: EDDK 010520Z AUTO 26012KT 9999 FEW023 05/02 Q1020 NOSIG
Freight Data
(for Feb 1, 2023)
Load Factor:
52%
Manifested Cargo: 35,678lbs
Financial History
Total Freight: 106,938lbs
Average Load: 0lbs/flt
Fuel Used: 144,143lbs
Avg. Fuel Used: 0lbs/flt
Fuel Expense: $87,663
Avg. Fuel Expense: $0
Avg. Fuel Cost: $0/lbs
Total Gross Income: $244,043
Pilot Pay: $1,026
Total Expenses: $54,130
Total Revenue: $97,028
Average Revenue: $0

Capitol Logistics 564




LPPD
João Paulo II Airport
Ponta Delgada, PT
EDDK
Cologne Bonn Airport
Cologne, DE